WW5JC Weather Reports


time (UTC)temp
F
wind
direction
speed
knots
gust
knots
rain 1hr
in
rain 24hr
in
rain mn
in
humidity
%
barometer
mb
20260506153236 55 333 2.6 3.5 0.00 0.00 0.00 92 1016.6
20260506152733 55 327 5.2 7.0 0.00 0.00 0.00 92 1016.6
20260506152230 55 357 2.6 3.5 0.00 0.00 0.00 92 1016.1
20260506151729 55 11 2.6 3.5 0.00 0.00 0.00 91 1016.1
20260506151225 55 4 3.5 3.5 0.00 0.00 0.00 92 1016.5
20260506150721 55 344 5.2 6.1 0.00 0.00 0.00 91 1016.3
20260506150219 55 325 3.5 3.5 0.00 0.00 0.00 91 1016.1
20260506145716 55 17 4.3 5.2 0.00 0.00 0.00 91 1016.1
20260506145212 55 31 7.0 8.7 0.00 0.00 0.00 91 1015.8
20260506144710 55 341 5.2 6.1 0.00 0.00 0.00 91 1015.7
20260506144206 55 359 8.7 9.6 0.00 0.00 0.00 91 1015.6
20260506143704 55 49 2.6 2.6 0.00 0.00 0.00 91 1015.4
20260506143202 55 1 8.7 13.0 0.00 0.00 0.00 91 1015.5
20260506142700 55 2 3.5 5.2 0.00 0.00 0.00 91 1015.7
20260506142158 54 24 3.5 5.2 0.00 0.00 0.00 91 1015.3
20260506141655 54 16 3.5 3.5 0.00 0.00 0.00 91 1015.2
20260506141153 54 344 4.3 5.2 0.00 0.00 0.00 91 1015.2
20260506140651 54 349 5.2 7.0 0.00 0.00 0.00 91 1015.1
20260506140148 54 2 3.5 3.5 0.00 0.00 0.00 91 1015.2
20260506135644 54 352 3.5 3.5 0.00 0.00 0.00 91 1015.1
20260506135141 54 6 7.0 7.8 0.00 0.00 0.00 91 1015.1
20260506134637 54 333 4.3 5.2 0.00 0.00 0.00 91 1015.0
20260506134133 54 342 5.2 6.1 0.00 0.00 0.00 91 1015.0
20260506133631 54 345 5.2 6.1 0.00 0.00 0.00 91 1015.0
20260506133128 54 24 3.5 3.5 0.00 0.00 0.00 91 1015.3
20260506132625 54 7 3.5 5.2 0.00 0.00 0.00 91 1015.1
20260506132122 54 347 5.2 6.1 0.00 0.00 0.00 91 1015.0
20260506131619 54 344 5.2 6.1 0.00 0.00 0.00 90 1014.9
20260506131115 54 356 4.3 5.2 0.00 0.00 0.00 90 1014.9
20260506130612 54 11 3.5 3.5 0.00 0.00 0.00 90 1015.0
20260506130110 54 342 3.5 5.2 0.00 0.00 0.00 90 1014.9
20260506125608 54 356 4.3 5.2 0.00 0.00 0.00 90 1015.0
20260506125106 54 350 7.8 9.6 0.00 0.00 0.00 90 1015.0
20260506124603 54 351 5.2 7.0 0.00 0.00 0.00 90 1014.6
20260506124101 53 344 1.7 1.7 0.00 0.00 0.00 91 1014.5
20260506123558 53 19 3.5 3.5 0.00 0.00 0.00 90 1014.3
20260506123057 53 346 6.1 8.7 0.00 0.00 0.00 90 1014.3
20260506122552 53 346 4.3 5.2 0.00 0.00 0.00 90 1014.2
20260506122051 53 354 9.6 11.3 0.00 0.00 0.00 90 1014.0
20260506121548 53 339 4.3 6.1 0.00 0.00 0.00 90 1014.1
20260506121044 53 320 6.1 7.0 0.00 0.00 0.00 90 1014.0
20260506120542 54 1 4.3 6.1 0.00 0.00 0.00 90 1013.8
20260506120039 54 336 7.8 7.8 0.00 0.00 0.00 89 1013.7
20260506115537 54 357 4.3 6.1 0.00 0.00 0.00 90 1013.9
20260506115036 54 354 6.1 7.8 0.00 0.00 0.00 90 1013.6
20260506114532 54 305 8.7 9.6 0.00 0.00 0.00 89 1013.7
20260506114031 54 20 10.4 13.0 0.00 0.00 0.00 89 1013.4
20260506113528 54 316 5.2 7.0 0.00 0.00 0.00 89 1013.3
20260506113026 54 339 4.3 7.0 0.00 0.00 0.00 89 1013.2
20260506112522 54 307 6.1 7.8 0.00 0.00 0.00 89 1013.4
20260506112019 54 319 2.6 3.5 0.00 0.00 0.00 89 1013.2
20260506111518 54 4 5.2 6.1 0.00 0.00 0.00 89 1012.9
20260506111014 54 351 7.8 8.7 0.00 0.00 0.00 89 1012.9
20260506110512 54 332 5.2 7.0 0.00 0.00 0.00 90 1012.7
20260506110009 54 303 7.0 7.8 0.00 0.00 0.00 89 1012.8
20260506105505 54 349 5.2 7.0 0.00 0.00 0.00 89 1012.6
20260506105002 54 335 5.2 6.1 0.00 0.00 0.00 89 1012.4
20260506104500 54 313 5.2 7.0 0.00 0.00 0.00 89 1012.4
20260506103958 54 350 4.3 6.1 0.00 0.00 0.00 89 1012.4
20260506103455 54 336 2.6 5.2 0.00 0.00 0.00 90 1012.3
20260506102952 54 344 3.5 3.5 0.00 0.00 0.00 90 1012.4
20260506102450 54 347 6.1 7.8 0.00 0.00 0.00 89 1012.5
20260506101947 54 332 3.5 3.5 0.00 0.00 0.00 90 1012.4
20260506101443 54 302 3.5 6.1 0.00 0.00 0.00 90 1012.4
20260506100941 54 272 1.7 1.7 0.00 0.00 0.00 90 1012.2
20260506100439 54 327 4.3 5.2 0.00 0.00 0.00 90 1012.2
20260506095937 54 338 4.3 5.2 0.00 0.00 0.00 89 1012.3
20260506095435 54 290 5.2 7.0 0.00 0.00 0.00 89 1012.2
20260506094931 54 348 4.3 6.1 0.00 0.00 0.00 89 1012.0
20260506094430 54 323 3.5 3.5 0.00 0.00 0.00 89 1011.8
20260506093927 54 347 5.2 5.2 0.00 0.00 0.00 89 1011.7
20260506093425 54 336 1.7 2.6 0.00 0.00 0.00 89 1011.5
20260506092922 54 348 1.7 1.7 0.00 0.00 0.00 89 1011.5
20260506092420 54 327 3.5 6.1 0.00 0.00 0.00 89 1011.7
20260506091916 54 350 5.2 6.1 0.00 0.00 0.00 89 1011.6
20260506091414 54 331 3.5 3.5 0.00 0.00 0.00 89 1012.0
20260506090911 55 339 5.2 7.0 0.00 0.00 0.00 89 1011.8
20260506090409 54 344 4.3 6.1 0.00 0.00 0.00 89 1011.6
20260506085905 55 318 3.5 3.5 0.00 0.00 0.00 89 1011.5
20260506085402 55 347 1.7 1.7 0.00 0.00 0.00 88 1011.6
20260506084858 55 347 3.5 3.5 0.00 0.00 0.00 88 1011.7
20260506084355 55 314 0.9 1.7 0.00 0.00 0.00 88 1011.6
20260506083852 55 326 2.6 5.2 0.00 0.00 0.00 87 1011.7
20260506083350 55 327 1.7 2.6 0.00 0.00 0.00 87 1011.7
20260506082847 55 323 3.5 5.2 0.00 0.00 0.00 86 1011.4
20260506082344 55 340 2.6 2.6 0.00 0.00 0.00 86 1011.4
20260506081839 55 334 3.5 3.5 0.00 0.00 0.00 85 1011.0
20260506081337 55 334 6.1 7.8 0.00 0.00 0.00 85 1011.2
20260506080835 55 344 2.6 3.5 0.00 0.00 0.00 85 1011.0
20260506080331 55 320 3.5 5.2 0.00 0.00 0.00 85 1011.0
20260506073310 56 335 6.1 8.7 0.00 0.00 0.00 84 1011.2
20260506072807 56 25 3.5 5.2 0.00 0.00 0.00 84 1011.3
20260506072306 56 358 1.7 1.7 0.00 0.00 0.00 84 1011.4
20260506071802 56 350 4.3 7.0 0.00 0.00 0.00 84 1011.4
20260506071300 56 347 3.5 3.5 0.00 0.00 0.00 84 1011.5
20260506070756 56 327 8.7 11.3 0.00 0.00 0.00 84 1011.4
20260506070254 56 306 3.5 5.2 0.00 0.00 0.00 84 1011.5
20260506062230 57 343 6.1 7.0 0.00 0.00 0.00 85 1011.2
20260506061726 57 2 3.5 3.5 0.00 0.00 0.00 85 1011.2
20260506061223 57 347 3.5 3.5 0.00 0.00 0.00 85 1011.2
20260506060722 57 350 6.1 7.0 0.00 0.00 0.00 85 1011.1
20260506060218 57 326 3.5 3.5 0.00 0.00 0.00 85 1010.8
20260506051150 58 339 7.0 7.8 0.00 0.00 0.00 86 1010.9
20260506050649 58 339 4.3 6.1 0.00 0.00 0.00 86 1010.8
20260506050146 59 356 3.5 6.1 0.00 0.00 0.00 86 1011.0
20260506044637 59 349 6.1 7.8 0.00 0.00 0.00 86 1010.9
20260506044134 59 318 6.1 8.7 0.00 0.00 0.00 85 1010.8
20260506043631 60 348 6.1 7.8 0.00 0.00 0.00 85 1010.6
20260506043129 60 332 5.2 6.1 0.00 0.00 0.00 85 1010.4
20260506042627 60 315 7.0 8.7 0.00 0.00 0.00 85 1010.6
20260506042125 60 311 7.0 7.8 0.00 0.00 0.00 85 1010.3
20260506041624 60 336 5.2 6.1 0.00 0.00 0.00 85 1010.5
20260506041120 60 308 5.2 7.0 0.00 0.00 0.00 85 1010.4
20260506040618 61 353 3.5 5.2 0.00 0.00 0.00 85 1010.4
20260506040114 61 15 3.5 5.2 0.00 0.00 0.00 85 1010.2
20260506035611 61 336 7.8 8.7 0.00 0.00 0.00 84 1010.3
20260506035108 61 355 4.3 7.0 0.00 0.00 0.00 85 1010.3
20260506034606 61 296 7.0 9.6 0.00 0.00 0.00 85 1010.1
20260506034103 62 311 8.7 9.6 0.00 0.00 0.00 84 1010.1
20260506033600 62 355 9.6 11.3 0.00 0.00 0.00 84 1010.1
20260506033056 63 349 10.4 13.0 0.00 0.00 0.00 84 1009.8
20260506032554 64 325 4.3 7.0 0.00 0.00 0.00 86 1009.9
20260506032050 64 313 3.5 5.2 0.00 0.00 0.00 85 1009.7
20260506031548 64 346 4.3 5.2 0.00 0.00 0.00 85 1009.4
20260506031045 64 328 1.7 2.6 0.00 0.00 0.00 85 1009.5
20260506030543 65 335 1.7 2.6 0.00 0.00 0.00 85 1009.4
20260506030040 65 270 5.2 7.8 0.00 0.00 0.00 85 1009.2
20260506025537 65 326 2.6 3.5 0.00 0.00 0.00 84 1008.9
20260506025032 65 302 4.3 6.1 0.00 0.00 0.00 85 1009.0
20260506024529 66 272 3.5 6.1 0.00 0.00 0.00 84 1009.0
20260506024026 66 348 6.1 7.8 0.00 0.00 0.00 84 1008.7
20260506023522 67 326 7.8 9.6 0.00 0.00 0.00 83 1008.8
20260506023020 67 332 6.1 7.0 0.00 0.00 0.00 83 1008.9
20260506022517 68 352 7.0 11.3 0.00 0.00 0.00 84 1008.3
20260506022015 68 342 2.6 2.6 0.00 0.00 0.00 84 1008.1
20260506021512 68 335 1.7 2.6 0.00 0.00 0.00 84 1008.3
20260506021009 69 338 1.7 2.6 0.00 0.00 0.00 84 1008.3
20260506020506 69 312 7.0 9.6 0.00 0.00 0.00 83 1008.5
20260506020004 69 323 6.1 7.8 0.00 0.00 0.00 83 1008.6
20260506015501 70 358 4.3 6.1 0.00 0.00 0.00 82 1007.7
20260506014957 71 340 5.2 7.8 0.00 0.00 0.00 82 1007.2
20260506014454 71 296 2.6 3.5 0.00 0.00 0.00 82 1007.5
20260506013951 72 303 3.5 5.2 0.00 0.00 0.00 81 1007.9
20260506013449 72 323 3.5 3.5 0.00 0.00 0.00 80 1007.3
20260506012945 73 289 3.5 3.5 0.00 0.00 0.00 79 1007.4
20260506012442 74 307 5.2 7.0 0.00 0.00 0.00 76 1007.4
20260506011938 76 346 2.6 5.2 0.00 0.00 0.00 70 1007.3
20260506011436 77 330 3.5 7.0 0.00 0.00 0.00 67 1007.1
20260506010933 77 305 0.9 1.7 0.00 0.00 0.00 64 1007.3
20260506010432 78 232 1.7 1.7 0.00 0.00 0.00 64 1007.2
20260506005927 78 279 1.7 1.7 0.00 0.00 0.00 64 1007.5
20260506005426 78 309 1.7 2.6 0.00 0.00 0.00 65 1007.3
20260506004921 78 302 4.3 6.1 0.00 0.00 0.00 65 1006.9
20260506004419 78 335 3.5 3.5 0.00 0.00 0.00 81 1006.7
20260506003915 78 208 2.6 2.6 0.00 0.00 0.00 85 1006.8
20260506003411 78 186 1.7 1.7 0.00 0.00 0.00 85 1007.0
20260506002908 79 186 1.7 1.7 0.00 0.00 0.00 84 1006.3
20260506002404 79 203 1.7 2.6 0.00 0.00 0.00 84 1006.4
20260506001859 79 200 1.7 1.7 0.00 0.00 0.00 83 1006.3
20260506001357 79 193 1.7 2.6 0.00 0.00 0.00 83 1006.5
20260506000854 79 188 1.7 1.7 0.00 0.00 0.00 84 1006.2
20260506000354 79 162 2.6 3.5 0.00 0.00 0.00 84 1006.0
20260505235848 79 197 5.2 6.1 0.00 0.00 0.00 83 1006.4
20260505235346 79 186 2.6 2.6 0.00 0.00 0.00 83 1006.1
20260505234843 80 179 2.6 3.5 0.00 0.00 0.00 82 1006.1
20260505234340 80 188 1.7 2.6 0.00 0.00 0.00 82 1006.1
20260505233837 80 195 4.3 6.1 0.00 0.00 0.00 81 1006.2
20260505233335 80 196 5.2 7.0 0.00 0.00 0.00 81 1006.0
20260505232832 80 183 3.5 3.5 0.00 0.00 0.00 80 1005.9
20260505232330 80 193 5.2 7.8 0.00 0.00 0.00 80 1006.0
20260505231826 81 199 6.1 7.0 0.00 0.00 0.00 79 1006.2
20260505231324 81 186 5.2 6.1 0.00 0.00 0.00 78 1006.2
20260505230822 81 201 5.2 6.1 0.00 0.00 0.00 78 1006.2
20260505230319 81 182 3.5 3.5 0.00 0.00 0.00 79 1006.3
20260505225815 82 176 4.3 6.1 0.00 0.00 0.00 78 1005.7
20260505225312 82 173 7.0 7.8 0.00 0.00 0.00 77 1005.8
20260505224807 81 200 3.5 5.2 0.00 0.00 0.00 78 1005.7
20260505224305 81 199 1.7 2.6 0.00 0.00 0.00 79 1005.8
20260505223802 81 195 4.3 6.1 0.00 0.00 0.00 78 1005.8
20260505223259 81 188 2.6 2.6 0.00 0.00 0.00 78 1005.8
20260505222755 81 195 5.2 6.1 0.00 0.00 0.00 78 1005.6
20260505222251 81 191 7.0 7.8 0.00 0.00 0.00 78 1005.7
20260505221748 81 193 6.1 7.0 0.00 0.00 0.00 78 1006.0
20260505221245 81 209 5.2 7.0 0.00 0.00 0.00 79 1005.9
20260505220741 81 197 4.3 6.1 0.00 0.00 0.00 78 1005.9
20260505220239 81 202 5.2 7.0 0.00 0.00 0.00 78 1006.1
20260505215738 81 205 6.1 7.8 0.00 0.00 0.00 77 1006.1
20260505215235 81 215 7.8 9.6 0.00 0.00 0.00 77 1006.2
20260505214733 82 230 6.1 7.0 0.00 0.00 0.00 77 1006.1
20260505214230 82 188 4.3 5.2 0.00 0.00 0.00 77 1006.1
20260505213727 82 181 5.2 6.1 0.00 0.00 0.00 76 1006.1
20260505213225 82 186 7.8 11.3 0.00 0.00 0.00 76 1006.1
20260505212720 82 180 3.5 5.2 0.00 0.00 0.00 76 1006.1
20260505212217 82 187 4.3 5.2 0.00 0.00 0.00 77 1006.2
20260505211715 82 188 3.5 3.5 0.00 0.00 0.00 76 1006.4
20260505211212 81 214 1.7 2.6 0.00 0.00 0.00 79 1006.3
20260505210709 81 208 2.6 3.5 0.00 0.00 0.00 78 1006.3
20260505210205 81 203 3.5 5.2 0.00 0.00 0.00 77 1006.3
20260505205702 81 195 7.8 9.6 0.00 0.00 0.00 78 1006.4
20260505205200 82 187 6.1 7.8 0.00 0.00 0.00 77 1006.5
20260505204651 82 182 1.7 2.6 0.00 0.00 0.00 77 1006.4
20260505204149 81 185 4.3 6.1 0.00 0.00 0.00 79 1006.7
20260505203646 81 191 3.5 5.2 0.00 0.00 0.00 79 1006.6
20260505203142 81 191 4.3 6.1 0.00 0.00 0.00 78 1006.5
20260505202637 80 189 7.8 8.7 0.00 0.00 0.00 79 1006.5
20260505202134 80 184 7.0 7.8 0.00 0.00 0.00 78 1006.6
20260505201626 80 198 4.3 5.2 0.00 0.00 0.00 79 1006.7
20260505201123 80 178 6.1 7.8 0.00 0.00 0.00 79 1006.8
20260505200621 80 203 3.5 5.2 0.00 0.00 0.00 80 1006.7
20260505200117 80 197 7.8 9.6 0.00 0.00 0.00 78 1006.8
20260505195614 80 203 10.4 12.2 0.00 0.00 0.00 78 1006.4
20260505195111 80 187 7.0 9.6 0.00 0.00 0.00 78 1006.5
20260505194609 80 250 5.2 6.1 0.00 0.00 0.00 79 1006.7
20260505194104 80 200 5.2 7.8 0.00 0.00 0.00 78 1006.7
20260505193601 80 197 8.7 11.3 0.00 0.00 0.00 77 1006.6
20260505193058 80 197 4.3 7.8 0.00 0.00 0.00 79 1006.7
20260505192557 80 182 7.0 8.7 0.00 0.00 0.00 78 1006.5
20260505192054 80 176 7.8 9.6 0.00 0.00 0.00 78 1006.7
20260505191552 81 181 7.8 8.7 0.00 0.00 0.00 77 1006.6
20260505191050 81 182 5.2 6.1 0.00 0.00 0.00 76 1006.7
20260505190550 81 199 5.2 6.1 0.00 0.00 0.00 77 1006.5
20260505190046 81 215 9.6 13.9 0.00 0.00 0.00 75 1006.5
20260505185543 80 212 9.6 11.3 0.00 0.00 0.00 77 1006.8
20260505185039 80 196 7.0 8.7 0.00 0.00 0.00 78 1006.7
20260505184536 80 205 7.0 8.7 0.00 0.00 0.00 78 1006.8
20260505184033 79 193 9.6 13.0 0.00 0.00 0.00 79 1006.6
20260505183530 79 202 8.7 11.3 0.00 0.00 0.00 78 1006.9
20260505183027 79 202 9.6 13.0 0.00 0.00 0.00 78 1006.9
20260505182523 80 199 3.5 3.5 0.00 0.00 0.00 78 1007.0
20260505182020 80 180 4.3 6.1 0.00 0.00 0.00 77 1007.1
20260505181511 79 179 6.1 7.8 0.00 0.00 0.00 78 1006.6
20260505181008 79 179 8.7 11.3 0.00 0.00 0.00 78 1006.7
20260505180503 78 188 9.6 11.3 0.00 0.00 0.00 80 1006.8
20260505180001 78 236 13.9 18.2 0.00 0.00 0.00 79 1006.9
20260505175456 78 178 8.7 12.2 0.00 0.00 0.00 81 1007.2
20260505174954 78 277 5.2 7.8 0.00 0.00 0.00 80 1007.0
20260505174451 78 189 9.6 13.0 0.00 0.00 0.00 80 1006.9
20260505173947 77 148 8.7 9.6 0.00 0.00 0.00 81 1006.5
20260505173443 77 170 6.1 7.0 0.00 0.00 0.00 81 1006.3
20260505172940 77 168 6.1 8.7 0.00 0.00 0.00 83 1006.2
20260505172439 76 136 3.5 3.5 0.00 0.00 0.00 84 1006.3
20260505171938 76 230 10.4 13.0 0.00 0.00 0.00 83 1007.1
20260505171435 76 180 9.6 12.2 0.00 0.00 0.00 83 1007.5
20260505170932 76 201 7.0 8.7 0.00 0.00 0.00 83 1007.6
20260505170428 76 189 7.0 7.8 0.00 0.00 0.00 83 1007.3
20260505165924 76 226 8.7 9.6 0.00 0.00 0.00 82 1007.3
20260505165420 76 199 11.3 15.6 0.00 0.00 0.00 82 1007.1
20260505164915 76 197 9.6 12.2 0.00 0.00 0.00 82 1007.1
20260505164412 75 196 9.6 9.6 0.00 0.00 0.00 84 1006.9
20260505163910 75 214 4.3 7.8 0.00 0.00 0.00 85 1007.1
20260505163409 75 243 4.3 6.1 0.00 0.00 0.00 85 1006.8
20260505162908 75 219 7.8 9.6 0.00 0.00 0.00 84 1007.1
20260505162403 75 189 6.1 7.8 0.00 0.00 0.00 85 1006.9
20260505161900 75 207 7.0 11.3 0.00 0.00 0.00 85 1006.7
20260505161357 74 200 4.3 7.0 0.00 0.00 0.00 85 1007.0
20260505160854 74 201 8.7 11.3 0.00 0.00 0.00 85 1006.9
20260505160352 74 200 7.8 12.2 0.00 0.00 0.00 86 1006.8